Погода в Жанауштогане

Погода в Жанауштогане : погода сейчас, прогноз погоды и архив. Всё, что Вы хотите узнать о погоде в Жанауштогане!

Хотите узнать прогноз погоды в Жанауштогане? Тогда Вам сюда: Погода в Жанауштогане

Поиск расширенной информации на нашем сайте:

Другие новости

Новости СМИ2

Главная страница сайта

Новости сайта

03.07.2017

Напоминаем, что на нашем специализированном сайте Метеоцентр.Азия вы можете получить высокодетализированные автоматические прогнозы погоды по пунктам России, СНГ и мира в авиационном формате (включающие направление и скорость ветра, видимость, явления погоды, количество и форму облачности, нижнюю и верхнюю границу облачности).

Рекомендуем: Подробное описание Крайслер замена катализатора на пламегаситель тут.

Погода в Жанауштогане - сегодня

Время (UTC), дата Ветер
(°,м/с) 
Видим.   Явления Облачность Т
(°С)
Тd
(°С)
f(%) Тe
(°С)
Pmin
(гПа)
dP
(гПа)
Po
(мм)
O2
(г/м3)
Тmin Tmax R s Состояние
почвы
15 14.02.18 090 (В) 20000 м    8/0 средняя 
[Ac trans]
-8.3 -13 69 -10  1032.5  1.6  775  323    -6.9       
18 14.02.18 090 (В) 20000 м    8/0 средняя 
[Ac trans]
-9.9 -13.5 75 -10  1033  0.5  776  326    -6.9       
21 14.02.18 090 (В) 20000 м    8/4 600 м средняя 
[Sc|Ac und]
-10.3 -13.9 75 -12  1033.5  0.5  776  326           
00 15.02.18 090 (В) 20000 м    8/4 600 м средняя 
[Sc|Ac und]
-9.8 -12.9 78 -10  1033.9  0.4  776  326           
03 15.02.18 090 (В) 20000 м    8/4 600 м средняя 
[Sc|Ac und]
-10.5 -13.3 80 -10  1034.3  0.4  777  327  -10.6      мокрый или
старый снег
50-90% 
06 15.02.18 090 (В) 20000 м    8/4 600 м средняя 
[Sc|Ac und]
-9.4 -13.4 73 -9  1036.2  1.9  778  326  -10.6         
09 15.02.18 090 (В) 20000 м    4/0 средняя 
[Ac trans]
-5.5 -11.6 62 -8  1038.1  1.9  780  322           
12 15.02.18 090 (В) 20000 м    3/0 средняя 
[Ac trans]
-4.9 -11.6 59 -8  1038.6  0.5  780  321           
15 15.02.18 090 (В) 20000 м    3/0 средняя 
[Ac trans]
-7.6 -13.1 65 -9  1039.4  0.8  781  325    -4.5       
18 15.02.18 090 (В) 20000 м    ясно 
-11.5 -15 75 -13  1039.9  0.5  781  330    -4.5       
21 15.02.18 090 (В) 20000 м    ясно 
-12.8 -16.3 75 -13  1040.5  0.6  781  332           
00 16.02.18 070 (В) 20000 м    ясно 
-14.6 -17.3 80 -15  1041.4  782  334           
03 16.02.18 090 (В) 20000 м    ясно 
-15.4 -18.1 80 -15  1041.6  0.2  782  336  -15.5      мокрый или
старый снег
50-90% 
06 16.02.18 090 (В) 20000 м    3/0 верхняя 
[Ci fib]
-11.8 -15.3 75 -14  1040.7  -1  782  331  -15.5         
09 16.02.18 090 (В) 20000 м    8/0 средняя 
[Ac trans]
-7.2 -12.7 65 -9  1040.5  -0.2  781  325           
12 16.02.18 090 (В) 20000 м    8/0 средняя, верхняя 
[Ac trans|Ci sp]
-4.8 -12.5 55 -6  1040.2  -0.3  781  322           
15 16.02.18 090 (В) 20000 м    4/0 средняя 
[Ac trans]
-6.2 -12.6 60 -8  1039.4  -0.8  781  323    -4.2       
18 16.02.18 050 (СВ) 20000 м    ясно 
-9.8 -14.7 67 -10  1039.3  -0.1  780  328    -4.2       
21 16.02.18 070 (В) 20000 м    ясно 
-10.4 -14 75 -10  1038.9  -0.4  780  328           
00 17.02.18 070 (В) 20000 м    ясно 
-11.8 -14.5 80 -12  1038.1  -0.8  780  330           
06 17.02.18 090 (В) 20000 м    ясно 
-11.2 -14.7 75 -14  1036.1  -0.5  778  328  -12.5         
09 17.02.18 090 (В) 20000 м    8/0 верхняя 
[Ci sp]
-5.4 -10.9 65 -9  1034.5  -1.6  777  320           
12 17.02.18 090 (В) 20000 м    8/0 средняя, верхняя 
[Ac trans|Ci sp]
-4.2 -11.1 59 -8  1032.7  -1.8  776  318           
15 17.02.18 090 (В) 20000 м    10/0 средняя, верхняя 
[Ac trans|Ci sp]
-5.5 -11.1 65 -9  1031.4  -1.3  775  320    -3.8       
18 17.02.18 090 (В) 20000 м    4/0 средняя 
[Ac trans]
-6.4 -11.9 65 -10  1031.4  775  321    -3.8       
Время (UTC), дата Ветер
(°,м/с) 
Видим.   Явления Облачность Т
(°С)
Тd
(°С)
f(%) Тe
(°С)
Pmin
(гПа)
dP
(гПа)
Po
(мм)
O2
(г/м3)
Тmin Tmax R s Состояние
почвы

Для получения пояснительной информации подведите курсор к названию столбца.

ПОГОДА в Жанауштогане - архив

Всё, что Вы хотите узнать о погоде в Жанауштогане - удобно и подробно!

Выберите нужную дату (начиная с 1 января 2015* года) и нажмите кнопку "Найти".
Будут отображены архивные сводки погоды по пункту Жанауштоган, начиная с указанной даты.


Отображать данные в формате CSV (для использования в таблицах Excel)


Внимание! Наш архив погоды предназначен исключительно для личного некоммерческого использования в познавательных целях. Если Вам необходимы официальные справки о состоянии погоды (для производственных, юридических, коммерческих и т.п. целей), обращайтесь в органы Росгидромета.

*Примечание: данная дата относится к архиву по метеостанциям СССР (Россия, СНГ, Балтия).
Архив по метеостанциям Зарубежной Европы и Азии (кроме Китая) хранится 10 дней, по другим регионам земного шара (Китай, Африка, Америка, Австралия, Океания) - 1 день.

Жанауштоган - район местоположения метеостанции


Название, широта, долгота, высота метеостанции:
Жанауштоган 47.9°ш. 48.8°д. -10 м над ур. моря [Казахстан]

Дополнительная информация

В oтличие oт бoльшинства пoгoдных сайтoв мы публикуем пoдрoбную метеoинфoрмацию в детальнoм прoфессиoнальнoм фoрмате.

Характеристики температуры и влажнoсти вoздуха измеряются на высoте 2 м в тени вдали oт зданий и деревьев.
Скoрoсть ветра измеряется на высoте 10 м (на урoвне рoста челoвека скoрoсть ветра ниже в 1.5-2 раза). Если метеoстанция нахoдится в гoрoде или в лесу, тo скoрoсть ветра занижена на 2-4 м/с пo сравнению с oткрытым местoм. Скoрoсть ветра над акватoриями крупных рек и oзёр, а также на вершинах хoлмoв на 2-5 м/с выше, чем в oбычных услoвиях.
Атмoсфернoе давление в разных тoчках местнoсти мoжет значительнo oтличаться oт давления на метеoстанции, в зависимoсти oт услoвий рельефа (при пoдъёме на 10 м давление пoнижается примернo на 1 мм рт.ст.).